Regional Weather Roundup
Issued by NWS

Home | Current Version | Previous Version | Graphics & Text | Print | Product List | Glossary On
Versions: 1 2 3 4 5 6 7 8 9 10 11 12 13 14 15 16 17 18 19 20 21 22 23 24 25 26 27 28 29 30 31 32 33 34 35 36 37 38 39 40 41 42 43 44 45 46 47 48 49 50
000
ASUS45 KTFX 310219
RWRMT
MONTANA HOURLY WEATHER ROUNDUP
NATIONAL WEATHER SERVICE GREAT FALLS MT
819 PM MDT SAT AUG 30 2014

NOTE: "FAIR" INDICATES FEW OR NO CLOUDS BELOW 12000 FEET WITH NO
SIGNIFICANT WEATHER AND/OR OBSTRUCTIONS TO VISIBILITY.

* THESE STATIONS ARE NOT UNDER NWS QUALITY CONTROL. THEY DO NOT
   REPORT WEATHER SUCH AS PRECIPITATION OR FOG.

MTZ001>007-043-310300-
WEST OF THE DIVIDE
CITY           SKY/WX    TMP DP  RH WIND       PRES   REMARKS
KALISPELL      MOCLDY    63  37  38 W5        29.78F
MISSOULA       CLOUDY    70  39  32 NW12      29.84R
BUTTE          CLOUDY    55  50  83 S5        29.92R
MULLAN PASS    MOCLDY    50  39  66 VRB6      29.94S
* LINCOLN      N/A       64  37  37 SW5G11     N/A
* LOOKOUT PASS N/A       58  41  53 SE4        N/A
* POLSON       N/A       60  37  43 N/A        N/A
* RONAN APT    MOCLDY    64  39  40 N/A        N/A
* SEELEY LAKE  N/A       65  37  36 NW6G13     N/A
* THOMP F APT  MOCLDY    47  43  86 NW3G26     N/A
$$

MTZ008-052>055-310300-
SOUTHWEST MONTANA
CITY           SKY/WX    TMP DP  RH WIND       PRES   REMARKS
BOZEMAN        CLOUDY    54  52  93 SE9       29.89F
DILLON         CLOUDY    55  48  77 S10       29.91S
W YELLOWSTONE  RAIN      45  45 100 SW3       30.04R
* THREE FORKS  CLOUDY    55  37  51 N/A        N/A
* BOULDER HILL N/A       54  45  72 S8         N/A
* MONIDA PASS  N/A       45  45 100 SW3G9      N/A
* RAYNOLDS PAS N/A       45  36  71 SW12       N/A
* WHITEHALL    N/A       58  51  78 SE2        N/A
* WISE RIVER   N/A       60  37  43 W9G16      N/A
$$

MTZ009>010-012-014-046-048-049-054-310300-
EAST SLOPES AND CENTRAL MONTANA
CITY           SKY/WX    TMP DP  RH WIND       PRES   REMARKS
CUT BANK       CLOUDY    63  37  38 W14       29.77S
GREAT FALLS    MOCLDY    64  37  37 NW9       29.76R
HELENA         CLOUDY    63  52  68 E6        29.83R
MALMSTROM AFB  PTCLDY    68  34  28 NW9G16    29.77R
* CONRAD       CLOUDY    66  36  33 W8         N/A
* EAST GLACIER N/A       57  37  47 NW16G21    N/A
* MONARCH      N/A       56  40  55 S4         N/A
* PENDROY      N/A       62  32  32 NW11       N/A
* ROGERS PASS  N/A       60  35  39 E6G14      N/A
* SAINT MARY   N/A       61  32  34 SW5G15     N/A
* SWEET GRASS  N/A       64  37  37 W8         N/A
* WHITE SULPH  N/A       54  47  77 S14G21     N/A
$$

MTZ011-013-016-021-035-040-045-047-050-051-310300-
NORTH CENTRAL MONTANA
CITY           SKY/WX    TMP DP  RH WIND       PRES   REMARKS
HAVRE          PTCLDY    66  48  52 N13       29.71R
LEWISTOWN      CLOUDY    61  46  58 SW12      29.80R
* CHINOOK      PTCLDY    64  50  61 NW6       29.71R
* FORT BENTON  PTCLDY    68  39  35 W3        29.74R
* CHESTER      N/A       70  34  27 W11G16     N/A
* DENTON       N/A       64  46  52 S9         N/A
* GEYSER       N/A       61  41  48 SW6        N/A
* JUDITH GAP   N/A       55  49  80 SW4        N/A
* LOMA         N/A       73  35  25 W9         N/A
$$

MTZ017>020-022>027-061-062-310300-
NORTHEAST MONTANA
CITY           SKY/WX    TMP DP  RH WIND       PRES   REMARKS
GLASGOW        CLOUDY    63  57  81 SE9       29.70S
GLENDIVE       CLOUDY    63  57  81 N6        29.70F
JORDAN         CLOUDY    66  55  68 S3        29.73S
SIDNEY         CLOUDY    61  57  87 CALM      29.70F
WOLF POINT     CLOUDY    63  59  87 W5        29.70S
* BEAVER HILL  N/A       64  59  84 NW4        N/A
* CIRCLE       N/A       64  58  81 W4         N/A
* LINDSAY DVD  N/A       60  57  90 W4         N/A
* NAVAJO       N/A       60  58  93 SW3        N/A
$$

MTZ028>042-056>058-310300-
SOUTHCENTRAL AND SOUTHEAST MONTANA
CITY           SKY/WX    TMP DP  RH WIND       PRES   REMARKS
BAKER          CLOUDY    64  57  78 W15       29.73R
BILLINGS       CLOUDY    63  52  68 SW9       29.82R
LIVINGSTON     CLOUDY    54  48  80 W7        29.90F
MILES CITY     CLOUDY    64  59  84 W6        29.72F
* LAUREL APT   CLOUDY    63  46  54 N/A        N/A
* ROUNDUP APT  CLOUDY    63  48  58 N/A        N/A
* ALZADA       N/A       66  55  68 W18        N/A
* HYSHAM       N/A       63  51  65 W2G7       N/A
* LAME DEER    N/A       56  55  96 W6         N/A
* REED POINT   N/A       61  47  60 W15G28     N/A
* ROSCOE HILL  N/A       56  40  55 NE4        N/A
$$

REGIONAL REPORTS...DAKOTAS
CITY           SKY/WX    TMP DP  RH WIND       PRES   REMARKS
WILLISTON      MOCLDY    63  61  93 NE6       29.68F
DICKINSON      CLOUDY    66  59  78 E7        29.66R
BEACH          N/A       63  63 100 NW8       29.71F
CROSBY         FOG       59  59 100 E3        29.69F VSB 3
TIOGA          TSTM      61  61 100 N9        29.74R VSB 1 1/2
WATFORD CITY   CLOUDY    63  63 100 N9        29.66S
BISMARCK       PTCLDY    66  57  73 E12       29.68F
GRAND FORKS    PTCLDY    66  57  73 SE10      29.78F
FARGO          MOCLDY    66  59  78 SE6       29.80F
RAPID CITY     CLOUDY    77  50  39 S12       29.63F
$$

REGIONAL REPORTS...WYOMING/IDAHO/WASHINGTON
CITY           SKY/WX    TMP DP  RH WIND       PRES   REMARKS
GILLETTE       TSTM      55  54  96 NW14G23   29.85R VSB 3
SHERIDAN       CLOUDY    57  55  93 NW9       29.82R
CODY           MOCLDY   N/A N/A N/A N/A        N/A
YELLOWSTONE LA MOCLDY    41  37  86 NW9G17    30.09R
SALMON         CLOUDY    57  54  90 CALM      29.88S
MULLAN PASS    MOCLDY    50  39  66 VRB6      29.94S
SAND POINT     MOCLDY    68  41  38 SW6       29.78S
SPOKANE        CLOUDY    70  45  41 SW15      29.82S
$$

REGIONAL REPORTS...ALBERTA
CITY           SKY/WX    TMP DP  RH WIND       PRES   REMARKS
CALGARY        PTCLDY    61  37  41 N8        29.71R
LETHBRIDGE     CLOUDY    63  39  41 W13       29.70S
MEDICINE HAT   MOCLDY    59  54  84 S2        29.70S
EDMONTON       MOCLDY    59  45  60 W20G29    29.69R
WATERTON GATE  N/A       57  32  39 SW9G17     N/A
CARDSTON       N/A       61  37  41 W8         N/A
MILK RIVER     N/A       61  48  62 S3         N/A
$$

REGIONAL REPORTS...SASKATCHEWAN
CITY           SKY/WX    TMP DP  RH WIND       PRES   REMARKS
SWIFT CURRENT  CLEAR     61  45  56 NW7       29.68S
REGINA         N/A       63 N/A N/A SE6       29.67R
VAL MARIE      N/A       57  54  90 NW7        N/A
ASSINIBOIA     N/A       63  52  68 S6         N/A
CORONACH       N/A       57  55  93 SE6        N/A

$$



USA.gov is the U.S. government's official web portal to all federal, state and local government web resources and services.